Regional Weather Roundup
Issued by NWS

Home | Current Version | Previous Version | Text Only | Print | Product List | Glossary Off
Versions: 1 2 3 4 5 6 7 8 9 10 11 12 13 14 15 16 17 18 19 20 21 22 23 24 25 26 27 28 29 30 31 32 33 34 35 36 37 38 39 40 41 42 43 44 45 46 47 48 49 50

000
ASUS43 KLSX 260307
RWRMO

WEATHER SUMMARY FOR MISSOURI
NATIONAL WEATHER SERVICE SPRINGFIELD MO
900 PM CST TUE NOV 25 2014

NOTE: "FAIR" INDICATES FEW OR NO CLOUDS BELOW 12,000 FEET WITH NO
       SIGNIFICANT WEATHER AND/OR OBSTRUCTIONS TO VISIBILITY.
       CURRENT SKY AND/OR WEATHER CONDITIONS ARE NOT AVAILABLE FOR
       CHILLICOTHE AND FARMINGTON.

MOZ001>031-035>038-043-044-053-054-260400-
...NORTHERN AND WESTERN MISSOURI...

CITY           SKY/WX    TMP DP  RH WIND       PRES   REMARKS
KANSAS CTY INT CLOUDY    37  21  52 S12       30.03F WCI  29
KANSAS C DTWN  CLOUDY    39  20  46 S9        30.05F
LEE`S SUMMIT   MOCLDY    37  16  42 S9        30.06F
ST JOSEPH      CLOUDY    36  22  56 S9        30.03F WCI  29
CHILLICOTHE      N/A     32  16  51 SE7       30.09F WCI  26
KIRKSVILLE     CLEAR     24  19  81 S5        30.11S WCI  18

$$
MOZ066>068-077>081-088>096-101>105-260400-
...SOUTHWEST MISSOURI...

CITY           SKY/WX    TMP DP  RH WIND       PRES   REMARKS
SPRINGFIELD    PTCLDY    29  19  66 S5        30.12S WCI  24
JOPLIN         CLOUDY    37  22  54 SE7       30.12S

$$
MOZ032>034-039>042-045>050-055>058-069>072-260400-
...CENTRAL MISSOURI...

CITY           SKY/WX    TMP DP  RH WIND       PRES   REMARKS
COLUMBIA       CLEAR     31  15  52 SE7       30.13S WCI  24
JEFFERSON CITY CLEAR     27  19  72 E3        30.16R
ROLLA          CLEAR     29  16  58 SE7       30.12F WCI  22
SEDALIA        PTCLDY    30  20  66 S9        30.12S WCI  22
WHITEMAN AFB   MOCLDY    30  18  59 S7        30.10S WCI  24
WARRENSBURG    MOCLDY    32  19  59 SE6       30.10S WCI  26
OSAGE BEACH    CLEAR     28  16  59 SE3       30.13S

$$
MOZ051-052-059>065-260400-
...EAST CENTRAL MISSOURI...

CITY           SKY/WX    TMP DP  RH WIND       PRES   REMARKS
ST LOUIS INTL  PTCLDY    30  22  72 E7        30.19R WCI  23
SPIRIT OF STL  CLEAR     26  22  84 CALM      30.17S
ST CHARLES     CLEAR     29  26  89 E3        30.18S

$$
MOZ072>076-082>087-097>100-106>115-260400-
...SOUTH CENTRAL AND SOUTHEAST MISSOURI...

CITY           SKY/WX    TMP DP  RH WIND       PRES   REMARKS
CAPE GIRARDEAU CLEAR     30  27  88 CALM      30.20S
FARMINGTON     CLEAR     27  21  80 CALM      30.17F
POPLAR BLUFF   CLEAR     30  25  81 CALM      30.19R
WEST PLAINS    CLEAR     27  19  72 CALM      30.15F

$$



USA.gov is the U.S. government's official web portal to all federal, state and local government web resources and services.